Date String (YYYY-MM-DD hh:mm:ss) UTC,Instrument flags,Ambient pressure (hPa),Sample flow (lpm),Bypass flow (lpm),Sample temperature (°C),Ambient temperature (°C),ASC tube jacket temperature (°C),LED temperature (°C),Box temperature (°C),Sample RH (%),Span deviation,Mass concentration (μg/m³),Mass concentration (μg/m³),Mass concentration (μg/m³)
DateTimeUTC,F1_M11,P_M11,Q1_M11,Q2_M11,T1_M11,T2_M11,T3_M11,T4_M11,T5_M11,U1_M11,ZSPAN_M11,X2_M11,X0_M11,X1_M11
2022-12-12 22:00:00,,0807.7,5.02,0.00,24.1,22.7,00.0,33.0,26.1,09.6,0000.0,0006.78,0023.77,0005.03
2022-12-12 22:01:00,,0807.9,5.00,0.00,24.2,22.7,00.0,33.0,26.1,09.7,0000.0,0006.78,0024.36,0005.03
2022-12-12 22:02:00,,0807.9,5.00,0.00,24.2,22.7,00.0,33.0,26.1,09.7,0000.6,0006.78,0024.23,0005.04
2022-12-12 22:03:00,,0807.8,5.00,0.00,24.2,22.8,00.0,33.0,26.1,09.7,0000.0,0006.82,0025.37,0005.06
2022-12-12 22:04:00,,0807.9,5.00,0.00,24.2,22.8,00.0,33.0,26.1,09.7,0000.6,0006.81,0025.51,0005.08
2022-12-12 22:05:00,,0808.0,4.99,0.00,24.2,22.8,00.0,33.0,26.1,09.8,0002.2,0006.85,0025.62,0005.11
2022-12-12 22:06:00,,0808.0,5.00,0.00,24.2,22.8,00.0,33.0,26.1,09.9,0000.4,0006.92,0026.16,0005.12
2022-12-12 22:07:00,,0808.0,5.00,0.00,24.2,22.8,00.0,33.0,26.1,09.8,0000.0,0006.97,0026.26,0005.12
2022-12-12 22:08:00,,0808.0,5.01,0.00,24.2,22.8,00.0,33.0,26.1,09.8,0000.0,0006.95,0024.83,0005.13
2022-12-12 22:09:00,,0808.1,5.00,0.00,24.2,22.8,00.0,33.0,26.1,09.8,0000.0,0007.01,0023.99,0005.14
2022-12-12 22:10:00,,0808.1,5.00,0.00,24.2,22.8,00.0,33.0,26.1,09.8,0000.0,0007.06,0024.89,0005.17
2022-12-12 22:11:00,,0808.1,5.00,0.00,24.2,22.8,00.0,33.0,26.1,09.8,0000.0,0007.11,0023.79,0005.20
2022-12-12 22:12:00,,0808.1,5.00,0.00,24.2,22.8,00.0,33.0,26.1,09.8,0000.0,0007.14,0023.15,0005.23
2022-12-12 22:13:00,,0808.1,5.00,0.00,24.2,22.8,00.0,33.0,26.1,09.9,0000.0,0007.15,0022.33,0005.25
2022-12-12 22:14:00,,0808.1,5.00,0.00,24.2,22.8,00.0,33.0,26.1,09.9,0000.0,0007.12,0022.21,0005.26
2022-12-12 22:15:00,,0808.1,5.00,0.00,24.2,22.8,00.0,33.0,26.1,09.9,0000.0,0007.09,0021.34,0005.27
2022-12-12 22:16:00,,0808.1,5.01,0.00,24.2,22.8,00.0,33.0,26.1,09.9,0000.0,0007.09,0021.09,0005.27
2022-12-12 22:17:00,,0808.1,5.00,0.00,24.2,22.8,00.0,33.0,26.1,09.9,0000.0,0007.06,0019.80,0005.28
2022-12-12 22:18:00,,0808.1,5.01,0.00,24.2,22.8,00.0,33.0,26.1,09.8,0000.0,0007.06,0019.63,0005.30
2022-12-12 22:19:00,,0808.1,5.00,0.00,24.2,22.8,00.0,33.0,26.1,09.9,0000.0,0007.04,0020.00,0005.29
2022-12-12 22:20:00,,0808.1,4.98,0.00,24.2,22.8,00.0,33.0,26.1,09.8,0000.0,0006.97,0020.35,0005.28
2022-12-12 22:21:00,,0808.1,5.00,0.00,24.2,22.8,00.0,33.0,26.1,09.7,0000.0,0006.99,0020.70,0005.26
2022-12-12 22:22:00,,0808.1,5.00,0.00,24.2,22.8,00.0,33.0,26.1,09.7,0000.0,0006.90,0020.86,0005.24
2022-12-12 22:23:00,,0808.1,5.01,0.00,24.2,22.8,00.0,33.0,26.1,09.6,0000.0,0006.84,0020.92,0005.21
2022-12-12 22:24:00,,0808.0,5.01,0.00,24.2,22.8,00.0,33.0,26.1,09.6,0000.0,0006.79,0021.56,0005.17
2022-12-12 22:25:00,,0808.1,5.00,0.00,24.2,22.8,00.0,33.0,26.2,09.5,0000.0,0006.76,0020.38,0005.13
2022-12-12 22:26:00,,0808.1,5.01,0.00,24.2,22.8,00.0,33.0,26.2,09.5,0000.0,0006.73,0019.70,0005.09
2022-12-12 22:27:00,,0808.1,4.98,0.00,24.2,22.8,00.0,33.0,26.2,09.6,0000.0,0006.70,0019.40,0005.06
2022-12-12 22:28:00,,0808.0,4.99,0.00,24.2,22.8,00.0,33.0,26.1,09.6,0000.0,0006.67,0019.17,0005.03
2022-12-12 22:29:00,,0808.1,5.00,0.00,24.2,22.8,00.0,33.0,26.1,09.5,0000.0,0006.59,0019.02,0004.98
2022-12-12 22:30:00,,0808.1,5.00,0.00,24.2,22.8,00.0,33.0,26.1,09.4,0000.0,0006.53,0018.45,0004.95
2022-12-12 22:31:00,,0808.1,5.01,0.00,24.2,22.8,00.0,33.0,26.1,09.4,0000.0,0006.50,0018.04,0004.94
2022-12-12 22:32:00,,0808.1,5.00,0.00,24.2,22.8,00.0,33.0,26.1,09.4,0000.0,0006.44,0017.71,0004.93
2022-12-12 22:33:00,,0808.1,4.99,0.00,24.2,22.8,00.0,33.0,26.1,09.4,0000.0,0006.43,0017.49,0004.93
2022-12-12 22:34:00,,0808.1,5.00,0.00,24.2,22.8,00.0,33.0,26.1,09.5,0000.0,0006.49,0017.81,0004.93
2022-12-12 22:35:00,,0808.1,5.00,0.00,24.2,22.8,00.0,33.0,26.1,09.6,0000.4,0006.53,0018.01,0004.95
2022-12-12 22:36:00,,0808.1,5.00,0.00,24.2,22.8,00.0,33.0,26.1,09.6,0006.2,0006.51,0019.80,0004.96
2022-12-12 22:37:00,,0808.2,5.01,0.00,24.2,22.8,00.0,33.0,26.1,09.6,0005.1,0006.54,0021.08,0004.98
2022-12-12 22:38:00,,0808.2,5.01,0.00,24.2,22.8,00.0,33.0,26.1,09.6,0003.2,0006.57,0021.24,0004.99
2022-12-12 22:39:00,,0808.2,5.00,0.00,24.2,22.8,00.0,33.0,26.1,09.6,0002.8,0006.55,0021.28,0005.00
2022-12-12 22:40:00,,0808.2,4.99,0.00,24.2,22.8,00.0,33.0,26.1,09.5,0001.5,0006.52,0021.13,0005.00
2022-12-12 22:41:00,,0808.3,5.00,0.00,24.2,22.8,00.0,33.0,26.1,09.4,0000.0,0006.50,0021.11,0005.00
2022-12-12 22:42:00,,0808.3,5.01,0.00,24.2,22.8,00.0,33.0,26.1,09.5,0000.0,0006.50,0020.85,0004.98
2022-12-12 22:43:00,,0808.3,5.01,0.00,24.2,22.8,00.0,33.0,26.2,09.2,0000.0,0006.44,0019.99,0004.97
2022-12-12 22:44:00,,0808.2,5.00,0.00,24.2,22.9,00.0,33.1,26.2,09.1,0000.0,0006.38,0019.45,0004.95
2022-12-12 22:45:00,,0808.2,5.00,0.00,24.2,22.9,00.0,33.1,26.2,09.2,0000.8,0006.36,0019.22,0004.93
2022-12-12 22:46:00,,0808.2,5.00,0.00,24.2,22.9,00.0,33.1,26.2,09.1,0000.0,0006.31,0018.83,0004.89
2022-12-12 22:47:00,,0808.3,5.00,0.00,24.2,22.9,00.0,33.1,26.2,08.9,0000.0,0006.26,0016.93,0004.85
2022-12-12 22:48:00,,0808.3,5.00,0.00,24.2,22.9,00.0,33.1,26.2,08.7,0000.0,0006.13,0015.87,0004.80
2022-12-12 22:49:00,,0808.2,5.01,0.00,24.2,22.8,00.0,33.1,26.2,08.7,0000.0,0006.00,0015.75,0004.73
2022-12-12 22:50:00,,0808.3,5.00,0.00,24.2,22.9,00.0,33.1,26.2,08.6,0000.0,0005.89,0015.13,0004.66
2022-12-12 22:51:00,,0808.3,4.99,0.00,24.2,22.8,00.0,33.1,26.2,08.6,0000.0,0005.78,0015.01,0004.60
2022-12-12 22:52:00,,0808.2,4.99,0.00,24.2,22.8,00.0,33.1,26.2,08.5,0000.0,0005.66,0014.52,0004.53
2022-12-12 22:53:00,,0808.3,5.00,0.00,24.3,22.8,00.0,33.1,26.2,08.5,0000.0,0005.49,0014.11,0004.45
2022-12-12 22:54:00,,0808.3,5.01,0.00,24.3,22.8,00.0,33.1,26.2,08.5,0000.0,0005.35,0014.03,0004.37
2022-12-12 22:55:00,,0808.2,5.00,0.00,24.3,22.8,00.0,33.1,26.2,08.5,0000.0,0005.23,0013.95,0004.30
2022-12-12 22:56:00,,0808.3,5.00,0.00,24.3,22.8,00.0,33.1,26.2,08.6,0000.0,0005.06,0013.20,0004.23
2022-12-12 22:57:00,,0808.2,4.99,0.00,24.2,22.8,00.0,33.1,26.2,08.6,0000.0,0004.90,0012.18,0004.16
2022-12-12 22:58:00,,0808.2,4.99,0.00,24.2,22.8,00.0,33.1,26.2,08.5,0000.0,0004.76,0011.62,0004.10
2022-12-12 22:59:00,,0808.1,5.00,0.00,24.2,22.8,00.0,33.1,26.2,08.6,0000.0,0004.70,0011.07,0004.02
